RH
11 10 11 11 12 13 14 15 15 16 17 18 19 18 18 17 18 18 18 19 19 19 19 20 20 21 21 19 19 16 14 15 16 18 20 26 26 24 21 17 16 14 13 13 13 14 13 13 13 14 13 16 20 21 26 26 28 27 21 19 19 24 26 26 29 30 28 28 37 40 38 37 36 38 40 40 40 39 40 40 34 31 31 29 33 39 42 44
11 11 12 13 14 15 16 16 16 17 18 18 18 18 18 17 18 18 18 18 18 19 18 20 20 20 20 20 19 16 14 13 14 18 21 24 23 21 20 17 16 13 13 12 13 14 12 13 14 14 12 16 21 21 23 25 26 26 22 18 20 26 27 27 29 30 30 28 34 39 36 34 32 32 35 35 35 38 39 34 34 34 30 30 36 43 45 45
12 13 14 15 16 16 16 16 17 18 18 18 18 17 17 17 18 18 18 18 19 19 18 18 19 20 20 19 19 16 16 15 13 17 20 22 21 20 19 17 15 13 12 12 12 13 12 14 14 14 15 17 22 22 23 26 27 26 24 18 22 29 28 31 31 31 34 32 34 38 40 37 32 32 34 36 34 36 37 31 32 33 29 27 32 43 48 46
15 15 16 16 16 16 16 17 18 18 18 18 17 17 17 18 19 19 19 19 19 18 17 17 19 21 20 19 19 17 19 15 13 18 21 21 21 20 18 17 15 13 13 12 13 13 13 15 17 19 19 21 25 24 23 28 28 26 28 24 24 27 26 32 32 33 40 36 31 35 42 38 33 36 35 35 35 32 33 29 30 31 27 25 28 41 49 45
16 16 16 16 16 16 17 18 18 18 18 17 17 17 18 19 21 21 21 19 19 18 19 18 18 19 19 19 19 18 18 15 16 21 21 21 22 20 17 17 15 13 13 12 13 12 13 15 19 25 24 23 26 24 23 29 29 28 34 32 28 28 27 33 35 40 44 36 33 36 38 36 35 38 36 36 34 27 26 28 31 31 26 26 30 39 46 44
16 16 16 15 16 16 17 18 18 18 17 16 16 18 19 21 21 22 22 20 20 19 20 21 19 18 17 18 17 17 17 18 22 24 22 21 22 20 18 17 16 14 13 12 12 11 14 15 18 27 28 27 29 27 26 30 30 28 32 35 34 32 32 37 41 45 44 34 34 37 34 36 38 36 37 41 35 27 29 34 35 35 34 37 40 41 43 42
15 15 15 15 16 16 18 18 18 17 16 16 17 18 19 20 21 22 22 21 21 20 20 22 21 20 18 18 18 19 21 22 25 25 22 22 21 20 19 17 15 14 14 13 13 13 15 14 19 29 30 29 29 29 30 29 30 30 33 39 39 37 39 42 45 46 42 34 34 37 35 36 37 36 42 43 35 30 34 40 43 47 49 51 48 43 42 40
14 14 15 16 17 17 18 17 17 16 16 17 17 19 19 20 21 21 21 20 21 20 20 20 21 22 19 18 21 22 23 24 26 25 21 21 20 19 19 17 15 14 14 14 14 17 17 17 23 28 30 32 30 32 35 28 28 37 40 40 39 39 43 43 44 43 39 37 37 38 34 32 34 37 42 38 30 28 29 34 42 49 53 53 50 44 43 41
15 16 16 17 17 17 17 16 16 15 16 17 18 19 18 20 21 21 22 21 20 19 19 20 20 21 18 19 22 21 23 25 27 24 19 20 20 19 18 16 15 13 14 17 17 17 17 22 26 23 27 33 33 37 41 31 29 43 46 42 40 40 42 40 40 40 37 37 37 37 32 31 35 37 36 29 25 24 24 28 33 40 44 44 46 45 44 42
16 17 17 17 16 16 16 16 16 16 17 17 17 18 18 19 20 21 23 22 20 18 19 19 19 19 18 21 23 22 24 26 26 24 19 19 18 17 17 16 16 14 17 21 22 21 18 21 22 20 26 33 38 42 44 39 36 46 46 41 41 39 39 39 38 38 36 36 37 36 31 30 36 39 33 23 24 27 27 28 28 33 35 33 37 40 43 43
16 16 16 16 16 17 18 18 17 17 17 17 18 18 18 19 19 19 21 22 21 20 19 19 19 18 19 21 23 23 24 25 26 25 21 18 16 16 17 17 17 15 18 23 25 24 20 21 23 25 29 30 38 42 44 46 42 44 44 39 40 38 36 37 36 36 35 36 36 35 34 32 38 43 35 24 26 30 29 28 28 31 31 29 30 32 37 40
15 16 16 16 16 17 18 18 17 17 17 17 17 17 18 18 19 20 21 21 20 20 20 20 20 20 23 23 23 25 25 25 26 26 24 20 19 19 19 18 17 16 18 23 27 26 23 24 26 32 33 30 38 40 39 46 44 42 41 37 38 36 35 35 35 36 34 34 36 38 37 35 40 41 30 24 27 31 32 29 28 29 29 28 28 28 31 34
16 15 15 15 14 15 17 18 16 17 17 17 17 17 17 18 19 19 20 20 19 20 19 19 20 20 25 27 26 24 24 25 24 24 25 23 23 22 21 20 18 19 18 23 30 29 26 25 27 35 38 34 40 40 36 44 45 41 39 37 33 30 31 34 34 35 35 37 39 41 35 27 31 32 24 24 30 32 32 29 27 27 27 27 28 29 29 30
15 14 14 13 14 15 17 18 16 16 16 16 17 16 18 20 20 19 19 19 19 20 19 19 20 21 26 28 24 23 24 25 23 23 24 23 24 22 22 22 21 23 21 24 29 28 26 26 27 35 40 38 39 40 38 40 41 39 40 37 31 26 28 34 37 35 35 37 39 41 36 24 21 22 21 25 30 31 30 27 25 25 27 27 28 30 29 29
14 15 14 12 13 16 17 17 16 15 16 16 16 17 19 20 20 19 19 19 19 20 20 20 20 22 28 27 22 23 24 23 24 25 24 22 23 21 23 22 22 23 22 24 25 24 26 26 28 32 37 40 39 37 35 35 35 38 37 30 30 30 28 34 39 38 36 36 38 40 36 28 21 20 25 31 33 34 31 26 25 25 26 27 28 29 29 28
15 16 13 11 14 16 17 17 16 15 15 16 17 18 18 18 18 18 18 18 18 19 19 20 21 22 28 27 23 23 23 23 25 25 24 24 22 22 22 21 21 21 21 23 23 23 25 30 40 41 36 36 35 31 29 29 30 35 33 25 29 32 28 32 41 47 45 39 40 41 37 31 25 24 32 38 36 35 32 27 27 26 26 27 28 29 29 29
16 15 12 13 16 17 17 17 16 15 16 17 18 18 18 19 18 16 17 17 17 18 18 20 20 22 26 24 22 23 24 24 24 24 25 24 23 22 20 20 22 21 20 20 20 23 26 34 46 43 36 37 39 34 26 24 24 28 31 27 32 35 31 31 40 51 52 44 41 40 41 36 26 24 28 31 32 33 31 28 27 26 27 28 29 30 30 30
15 12 12 16 18 18 18 17 17 17 18 18 18 17 18 18 18 17 18 17 17 17 17 20 21 23 26 23 22 25 24 24 24 25 25 23 24 22 20 23 25 21 22 22 21 27 29 34 38 33 31 35 38 33 24 23 25 25 27 26 30 35 34 33 39 50 54 51 46 40 42 37 28 25 24 23 27 30 30 29 29 28 28 28 29 31 30 31
12 9 12 17 17 17 18 18 18 18 18 17 16 17 16 16 17 17 19 19 24 25 23 27 29 29 27 24 24 24 24 25 24 24 25 25 24 22 22 25 27 24 27 25 24 33 36 32 32 29 31 36 41 41 34 33 37 35 33 31 31 33 33 35 41 52 58 55 49 44 42 36 29 27 24 23 28 32 32 31 30 30 29 29 29 30 31 32
10 8 11 16 16 16 17 18 18 18 17 15 15 15 16 23 24 23 26 27 33 39 37 36 37 32 26 24 24 23 23 23 22 24 27 26 24 22 23 26 29 28 34 37 32 39 43 34 32 35 37 43 49 52 49 47 48 44 38 35 35 35 33 35 44 57 62 52 42 42 43 38 34 31 27 25 28 32 31 30 30 29 28 28 29 30 31 32
8 8 13 15 16 17 17 18 18 17 16 14 15 17 23 33 30 25 31 33 32 36 38 36 33 28 24 25 26 26 23 20 19 22 24 28 25 20 24 30 29 24 38 56 47 43 43 32 36 44 45 50 52 56 58 56 54 46 37 35 35 36 33 37 48 55 57 49 38 43 46 40 35 31 27 25 27 28 26 26 26 24 26 28 29 31 32 32
6 8 13 16 16 17 17 18 18 17 16 15 18 22 26 28 23 20 26 29 26 27 33 34 29 26 25 25 27 27 23 21 21 20 24 28 23 22 30 33 30 29 43 53 41 34 35 31 42 51 50 56 60 62 61 58 54 41 35 35 32 35 36 39 51 54 53 49 38 42 46 37 31 28 25 23 22 23 23 24 25 24 26 26 26 30 32 32
6 7 11 15 16 15 16 18 17 17 18 17 18 22 23 20 18 19 22 25 24 27 33 34 31 28 25 22 25 26 24 28 28 21 25 30 29 35 38 33 35 39 43 43 32 24 24 32 51 57 53 55 57 60 59 51 44 35 33 33 30 37 39 34 46 54 53 52 45 46 48 38 29 26 22 24 27 28 30 32 33 34 31 28 28 32 34 33
6 6 8 13 15 13 15 16 16 17 17 19 17 18 20 18 19 21 24 29 27 25 27 30 33 31 26 23 24 25 27 34 32 22 26 34 38 42 41 43 43 37 42 51 43 31 32 45 59 61 55 53 52 54 53 40 33 34 37 35 31 37 39 34 43 49 46 49 53 49 39 29 26 24 19 26 36 35 36 37 35 37 38 37 38 38 38 36
6 6 7 10 13 13 12 12 15 16 17 20 17 17 18 17 21 21 25 30 24 22 24 25 28 26 24 23 24 31 35 33 29 26 29 35 41 42 45 52 42 30 43 56 44 31 40 55 60 57 54 54 50 46 45 38 30 31 35 36 35 36 40 42 44 43 34 36 49 46 30 21 22 21 17 23 31 28 32 35 28 28 33 38 40 35 34 38
7 7 7 7 9 11 11 13 14 16 20 21 17 18 17 19 24 21 25 30 20 21 26 22 21 21 23 24 31 41 37 28 26 29 31 35 43 41 39 46 41 40 53 52 40 35 46 61 61 55 51 52 49 39 41 43 31 27 35 41 42 42 45 47 46 42 30 28 45 49 33 24 22 17 19 28 31 26 27 30 26 24 25 30 34 30 29 33
9 8 7 7 8 8 12 15 15 20 26 23 18 18 18 20 23 18 24 29 19 20 24 23 21 19 23 29 35 36 27 26 29 29 31 33 41 39 31 36 38 47 61 47 31 37 50 57 57 54 51 48 41 34 41 43 29 29 44 48 45 47 47 48 46 41 36 32 42 49 38 31 30 25 28 35 30 24 23 24 23 22 21 23 28 30 31 32
10 9 7 8 7 7 11 13 15 22 26 22 19 19 20 21 21 22 26 22 19 21 22 25 22 18 27 31 34 37 33 35 31 26 31 31 35 38 32 38 38 46 63 45 20 32 47 46 46 48 47 40 35 37 44 42 34 40 52 50 48 50 48 48 46 41 40 36 32 40 39 32 30 25 29 34 26 23 25 24 23 24 25 25 28 30 32 34
11 10 8 8 8 9 12 12 16 21 20 20 20 21 21 19 18 26 29 19 16 19 19 22 20 24 39 35 34 44 40 38 34 29 35 30 28 35 36 47 52 50 58 46 27 32 43 47 48 44 36 34 39 48 50 44 44 51 55 52 51 51 47 45 44 40 41 36 28 35 37 30 23 18 21 25 23 24 27 26 26 28 31 31 32 32 31 34
9 9 9 9 9 11 12 13 19 19 18 21 22 21 19 20 24 26 23 16 15 21 26 28 26 34 46 35 31 42 38 39 44 41 42 36 32 37 42 50 51 41 41 44 38 37 48 60 63 55 44 41 48 57 60 55 56 59 54 49 46 43 43 42 39 37 36 29 30 39 40 33 25 17 15 19 27 31 26 23 25 26 27 28 31 34 34 35
9 9 10 11 12 13 13 17 20 18 21 22 20 21 18 25 36 28 18 19 19 26 33 34 38 45 47 35 28 36 40 43 48 43 37 37 35 36 37 36 35 30 26 30 32 35 47 52 53 59 59 52 49 53 63 64 60 57 50 42 36 30 32 34 31 32 26 21 32 44 43 39 31 22 17 22 36 42 33 27 27 24 23 25 29 32 35 38
11 11 12 13 15 13 13 19 22 22 23 20 19 27 28 27 29 23 22 24 19 24 30 33 43 47 44 39 32 37 40 37 43 45 38 36 35 36 38 34 30 24 17 19 23 25 35 41 44 53 56 53 44 39 49 58 55 50 43 36 29 21 22 24 21 23 20 20 37 46 40 36 30 24 25 28 35 39 39 38 34 29 27 27 29 31 35 40
14 14 14 16 15 13 15 20 22 23 21 18 22 36 42 29 18 21 29 26 18 25 34 37 43 43 38 33 29 36 37 29 36 46 45 41 34 34 43 48 42 26 14 19 22 18 23 37 45 43 43 50 45 30 29 37 40 39 35 31 27 21 23 26 22 23 23 23 37 43 37 33 24 20 27 29 26 28 33 37 37 35 33 30 32 36 42 45
17 16 15 17 16 17 22 22 22 24 19 20 28 36 38 26 17 24 28 23 24 31 37 39 37 34 32 25 25 34 31 26 33 39 39 33 23 23 32 43 46 34 21 22 23 22 20 23 33 37 40 48 44 37 36 32 31 38 37 32 30 25 24 27 23 23 29 30 36 41 36 30 22 19 23 24 23 26 28 34 39 41 41 42 44 46 48 47
16 15 15 19 19 21 25 24 26 25 17 26 38 34 28 22 18 22 23 23 28 30 31 36 31 22 21 21 26 35 29 24 30 31 29 25 21 24 26 32 42 36 27 23 24 29 21 13 31 47 49 49 44 48 53 39 30 40 42 34 33 31 25 28 33 36 44 45 41 42 36 27 22 20 23 26 27 28 30 37 42 41 41 48 50 46 42 40
14 15 17 19 23 24 23 25 27 22 24 40 43 29 24 24 18 22 32 32 30 28 25 27 25 17 18 20 25 36 32 26 29 25 22 26 27 30 30 35 44 41 33 24 21 27 21 16 35 50 49 49 50 53 55 44 32 35 37 33 37 41 32 32 40 45 51 47 34 32 31 26 22 17 20 25 23 22 25 29 30 28 31 39 39 34 31 31
12 14 17 20 27 27 22 24 22 18 32 48 41 26 24 27 26 32 44 42 37 36 25 18 20 19 21 19 20 33 32 24 28 22 15 23 27 29 33 38 46 49 44 34 25 26 26 23 31 42 42 47 57 59 55 55 46 33 33 35 39 43 36 34 38 37 40 38 28 29 35 32 25 18 19 22 19 16 17 18 18 20 24 26 25 24 25 27
14 17 21 19 23 28 25 22 17 20 37 47 42 34 28 32 41 47 51 48 44 38 23 17 21 21 23 21 19 33 35 24 24 22 15 19 22 28 34 35 44 55 55 45 32 27 30 26 27 39 43 42 50 50 44 53 56 43 39 38 35 36 33 31 35 32 33 37 32 32 41 40 30 22 19 18 17 14 13 14 17 19 20 20 21 22 24 26
15 24 31 21 18 24 23 16 18 32 42 39 40 41 34 38 52 57 58 55 46 35 25 23 26 22 22 24 22 30 37 28 23 21 18 18 21 30 35 33 39 53 57 48 36 30 30 25 23 36 44 38 35 34 30 39 50 49 47 42 38 39 35 32 35 32 31 36 36 37 38 31 26 26 21 16 14 13 15 17 19 20 20 21 23 24 25 26
18 27 28 18 17 20 16 14 26 43 45 38 40 43 37 39 50 60 68 64 46 33 29 26 27 24 23 28 26 28 35 34 28 23 19 21 22 28 40 42 36 44 55 53 42 34 30 25 22 28 35 30 24 27 28 27 35 41 41 43 45 44 41 38 39 41 38 33 34 41 37 22 20 26 21 15 15 15 19 22 20 21 21 21 22 23 24 26
29 35 24 16 17 19 18 25 43 52 46 40 38 40 45 44 43 53 69 71 53 40 36 30 27 25 25 27 26 28 34 34 34 28 22 25 20 19 48 69 60 51 49 42 38 36 31 27 28 29 29 23 21 32 38 34 37 37 34 37 40 40 40 36 39 50 52 43 37 40 39 27 22 24 18 15 18 18 22 26 23 21 20 19 20 22 23 25
36 35 21 16 16 17 25 39 55 56 45 42 40 46 60 56 42 45 58 61 53 45 42 38 35 30 27 28 27 31 35 31 32 29 23 24 17 19 59 94 92 77 55 35 37 46 40 31 36 38 30 24 29 43 54 54 50 44 40 42 40 39 38 32 36 45 49 52 51 46 47 36 22 21 20 19 23 24 27 30 25 21 19 19 20 20 21 23
40 26 14 17 16 19 30 39 50 50 44 48 50 55 63 55 43 44 48 49 46 42 38 37 39 34 31 36 34 29 30 28 26 24 22 24 28 49 84 101 94 77 52 35 36 47 46 35 36 36 24 22 30 38 51 59 55 45 41 46 45 45 50 46 43 42 38 46 49 47 51 39 20 22 26 25 27 26 25 26 24 21 19 19 20 20 21 22
38 25 21 19 10 19 32 31 36 45 46 45 42 45 51 51 50 46 40 46 52 45 36 36 38 36 38 45 40 30 29 26 21 24 27 27 42 78 102 98 88 68 49 49 51 46 38 28 30 34 27 26 27 25 33 44 45 36 35 48 55 59 70 66 50 44 43 43 41 44 49 35 18 20 23 21 21 18 17 19 19 20 20 19 20 21 22 25
33 25 28 24 13 24 38 36 38 45 47 45 39 36 38 42 54 57 48 50 59 53 41 38 42 44 46 48 41 35 34 26 19 28 36 32 43 82 102 95 92 80 70 85 87 61 39 28 27 31 32 33 31 26 27 29 31 27 31 53 66 67 71 59 40 41 47 44 41 42 42 30 18 19 19 17 18 17 17 17 18 20 21 21 23 24 25 27
33 25 32 38 34 36 42 43 46 43 40 45 40 33 32 29 39 58 57 47 54 60 50 43 46 45 41 38 33 34 39 36 32 37 43 38 35 66 98 100 96 91 88 101 96 63 41 39 35 31 33 35 31 28 25 24 30 31 35 53 66 71 71 55 42 44 43 40 42 38 35 35 28 21 21 20 19 19 19 19 20 21 21 23 25 26 28 27
34 27 32 39 37 37 38 38 43 40 35 40 37 29 32 30 26 40 48 44 57 66 51 41 43 36 30 29 26 29 37 39 39 40 46 50 44 54 86 100 94 92 94 96 87 58 40 44 47 45 45 40 33 31 28 28 33 34 38 49 57 69 75 62 52 46 37 39 42 31 28 37 32 23 23 23 20 21 21 22 23 23 23 25 25 26 27 26
34 28 29 34 32 32 32 30 40 45 39 44 46 35 32 32 27 30 36 40 51 55 39 30 34 34 35 35 27 25 29 30 37 42 41 50 53 47 60 81 90 90 84 74 70 57 41 42 53 60 56 43 36 36 32 32 34 35 43 49 47 59 75 71 59 47 39 43 42 30 27 32 31 26 25 24 22 23 24 24 25 25 25 25 25 26 27 26
32 27 29 37 40 41 42 41 47 47 38 42 46 36 31 31 28 30 35 31 31 36 31 22 26 38 48 46 34 28 29 26 37 48 42 41 50 42 38 54 70 76 68 56 63 63 43 41 63 73 62 45 37 37 36 39 42 41 45 45 38 44 58 64 57 46 42 43 38 32 34 34 31 29 27 26 25 25 26 26 26 26 27 27 28 29 29 30
32 31 33 36 39 47 55 53 46 37 33 38 36 31 34 34 30 36 41 33 24 27 32 29 29 43 57 55 41 31 31 27 30 42 44 41 47 46 38 38 44 58 62 56 61 60 39 43 68 71 55 43 37 37 38 40 42 42 40 37 34 36 43 53 58 52 50 51 43 39 44 42 33 28 27 26 25 26 27 27 28 29 29 31 31 31 32 33
28 29 30 28 29 40 46 41 36 31 28 31 31 30 33 32 35 42 40 43 42 33 35 39 36 45 58 55 44 38 40 38 34 42 49 44 44 45 39 37 41 50 59 60 60 52 37 42 56 55 48 41 34 36 38 34 37 44 43 38 33 32 36 45 53 53 53 54 49 46 47 40 29 25 28 28 28 31 32 31 32 32 32 33 34 34 34 35
28 25 26 28 28 35 38 31 30 31 29 32 39 39 36 38 50 46 30 42 60 54 53 55 44 43 45 37 40 50 54 54 58 66 68 61 59 57 50 50 51 49 53 60 60 56 48 42 43 47 49 40 31 34 36 31 32 34 31 29 27 26 29 32 35 40 42 42 42 41 37 29 25 29 32 33 33 34 35 34 34 35 35 36 35 35 36 37
Wind_Speed
2 3 3 4 5 6 7 7 6 5 4 4 3 1 2 3 4 5 5 5 4 6 7 8 9 9 6 5 6 4 9 16 18 21 17 13 20 17 10 8 7 4 1 3 5 2 0 3 6 4 3 5 4 2 1 3 3 1 1 2 3 3 3 5 9 5 2 8 11 9 10 10 8 6 3 2 6 8 5 7 9 7 9 9 3 3 6 8
5 5 6 6 7 7 7 6 5 5 4 3 1 1 3 4 5 6 5 5 4 6 9 12 11 9 7 5 9 8 6 11 16 19 15 18 21 13 8 7 6 3 2 4 5 4 2 1 3 3 4 3 3 2 1 2 4 1 1 1 3 2 2 2 5 4 1 7 11 9 8 7 6 6 5 5 9 8 9 10 9 10 11 11 8 8 8 9
7 7 7 7 7 6 6 6 5 5 3 2 1 3 4 5 6 6 5 4 4 6 9 10 7 5 4 8 12 11 2 6 12 13 16 21 17 10 8 6 4 4 0 4 5 4 2 4 2 3 4 3 3 2 2 4 4 1 1 2 4 2 3 2 2 3 1 4 11 9 5 5 4 4 5 6 9 8 11 11 10 13 13 12 11 10 9 10
8 7 7 7 6 6 6 6 5 4 2 1 2 4 5 5 4 4 4 4 5 5 7 6 5 3 6 11 14 12 5 2 7 12 19 20 15 10 8 4 3 4 4 3 5 5 7 8 7 5 4 4 3 2 4 5 3 2 2 3 5 2 4 3 1 2 2 3 9 9 6 6 4 3 5 6 8 9 12 13 13 13 12 12 10 10 11 12
7 7 7 6 6 6 6 5 4 2 1 2 4 4 4 3 4 5 3 9 12 14 16 14 13 11 8 8 11 9 4 0 5 16 21 18 14 10 7 4 2 3 5 5 5 6 6 6 5 5 4 3 3 2 4 5 2 4 3 3 4 1 3 3 1 1 0 3 7 8 7 5 3 4 8 9 10 9 9 11 14 12 11 9 6 9 11 12
6 6 6 5 5 5 5 4 2 1 2 3 3 3 4 5 5 6 3 10 12 12 13 14 16 16 13 9 7 5 1 2 8 20 21 16 12 9 7 5 1 3 1 2 1 2 2 3 3 3 3 3 5 4 4 4 2 3 3 2 3 2 2 3 0 1 2 6 9 7 4 2 4 7 6 9 15 12 3 2 7 10 10 5 2 7 10 12
5 5 5 5 5 4 3 2 1 2 3 2 2 4 5 5 5 6 2 8 8 7 6 7 9 10 11 12 13 9 5 4 14 23 19 15 10 8 5 4 1 2 3 0 1 2 3 4 6 3 4 4 5 6 4 4 4 4 5 2 2 2 2 2 1 2 2 4 5 2 0 3 7 7 1 8 18 16 9 3 3 4 4 3 4 8 11 13
4 4 4 4 4 3 2 2 3 3 1 2 5 6 5 6 7 9 7 3 4 5 3 3 3 2 2 4 8 10 8 8 20 22 16 12 9 7 3 2 2 1 2 4 3 3 2 4 7 3 4 4 2 4 2 4 9 8 5 2 2 3 4 2 2 3 2 1 1 0 4 6 6 3 4 13 18 16 16 11 7 5 3 5 8 10 12 13
4 4 4 3 3 2 3 4 4 2 2 5 7 6 5 6 8 11 11 7 3 6 5 3 1 3 1 1 1 6 7 12 19 17 12 9 6 5 2 0 1 4 6 9 5 2 0 1 3 3 5 5 2 2 3 2 5 5 4 3 4 4 3 3 3 3 2 1 1 4 8 6 1 3 9 18 19 14 14 13 11 9 9 11 10 11 13 13
4 4 3 2 2 3 4 4 3 2 5 7 6 5 5 4 6 6 8 10 7 2 5 2 2 2 2 3 2 7 7 13 15 14 12 10 7 4 2 3 3 5 6 9 6 3 0 5 6 6 10 6 3 3 5 3 4 5 7 7 6 4 3 2 3 3 1 1 2 6 9 5 3 2 10 12 8 4 7 10 10 10 13 15 12 13 13 14
3 2 1 2 2 1 2 1 2 4 6 6 5 4 4 3 2 4 5 10 13 14 13 11 12 13 14 9 8 8 7 11 16 17 15 14 15 13 10 5 5 8 12 13 11 10 10 13 10 6 5 3 5 8 6 4 5 5 6 7 7 4 3 1 3 2 1 2 2 4 10 9 4 4 14 13 2 3 5 8 8 10 12 14 14 13 12 14
2 2 2 1 1 1 0 1 2 5 6 5 5 3 2 1 3 5 8 10 11 15 16 15 15 16 20 18 10 4 6 11 14 19 21 20 21 20 16 12 10 13 17 14 10 11 12 9 8 6 2 3 4 6 5 2 1 3 1 3 4 1 2 3 2 2 2 1 2 2 8 10 9 11 19 13 2 1 5 9 9 10 11 11 12 11 10 13
4 5 4 4 3 2 1 2 3 5 5 5 4 1 0 3 4 5 12 11 7 6 5 5 5 5 11 11 5 3 7 11 13 17 22 24 25 23 21 19 17 16 19 18 10 8 8 8 14 12 4 4 3 2 6 3 1 3 2 2 2 3 2 3 1 1 3 1 2 2 6 6 9 16 17 6 2 2 6 10 10 9 9 10 10 9 11 14
8 6 5 4 3 1 1 3 4 5 5 4 3 0 1 3 4 7 9 10 8 7 9 11 9 9 11 5 2 5 6 8 12 15 17 18 21 24 25 24 24 23 24 25 20 16 16 18 22 14 4 5 5 4 5 3 1 2 1 0 1 3 2 4 2 2 4 1 2 4 5 6 6 10 10 3 1 5 9 12 11 9 8 8 9 10 11 13
7 5 5 4 1 1 2 3 4 5 4 3 1 1 3 5 6 7 7 8 9 11 14 12 8 8 9 5 1 5 6 7 11 14 13 12 12 14 17 20 23 23 23 23 20 18 17 18 15 9 4 3 4 5 3 3 2 2 1 2 1 2 1 3 3 3 4 1 3 5 5 8 10 6 2 1 2 5 9 11 10 9 9 9 9 10 11 12
5 3 5 3 2 2 2 3 4 5 5 3 2 5 7 9 10 10 9 9 10 12 11 11 11 10 7 4 1 3 6 7 9 10 10 11 10 6 6 10 14 14 16 16 14 14 16 15 8 3 3 1 2 3 3 2 1 1 2 2 2 3 2 1 3 2 3 1 4 7 6 7 7 3 2 4 4 4 7 11 12 12 11 11 10 10 10 11
1 4 4 3 4 3 2 3 5 6 6 4 4 5 5 5 5 6 7 9 11 10 8 9 9 8 5 2 1 3 5 6 8 8 8 10 11 8 6 5 5 5 8 11 12 10 11 9 2 0 3 2 1 0 2 2 2 2 1 2 1 3 3 2 1 2 2 4 6 8 8 13 13 9 7 6 6 5 10 14 15 13 11 10 9 10 10 11
2 4 4 5 5 4 4 6 7 8 9 10 10 10 10 9 7 5 4 5 5 4 5 6 4 4 5 3 2 4 6 6 7 9 7 7 9 11 11 7 3 3 1 4 10 8 5 3 0 2 3 2 2 2 2 1 1 1 2 3 1 2 4 4 2 1 2 5 8 8 9 16 19 16 15 12 8 9 13 14 14 13 12 11 9 9 10 10
3 3 5 6 5 4 5 8 10 11 14 15 15 14 14 16 16 15 16 10 2 1 2 4 4 3 4 3 2 5 5 4 5 9 10 8 6 7 11 9 4 3 1 1 5 6 3 2 1 2 3 2 3 2 3 2 2 1 0 2 3 4 4 5 2 1 1 4 8 11 12 15 18 17 17 13 7 8 13 13 12 12 10 10 8 9 9 10
3 3 6 6 4 3 6 11 13 16 17 12 7 5 6 7 8 9 15 15 5 2 2 2 2 4 4 2 3 4 2 2 3 10 14 11 5 3 7 7 3 5 4 1 3 4 2 2 3 1 2 2 2 2 2 2 1 1 1 1 3 5 6 4 1 2 0 5 8 9 11 15 17 18 18 14 7 9 14 13 12 11 9 8 8 8 9 10
0 5 8 6 5 6 10 14 16 19 14 5 6 2 2 0 3 3 2 6 3 3 3 1 3 5 4 1 5 5 1 2 6 11 16 11 4 2 5 5 2 5 4 2 2 2 2 2 3 1 2 2 1 1 2 2 0 0 1 2 3 4 6 2 2 1 1 3 6 4 8 15 17 17 18 16 11 12 14 13 12 11 8 7 7 9 10 8
2 6 10 8 8 9 11 15 18 17 7 7 8 4 3 4 11 10 5 5 3 3 2 2 3 5 2 1 7 6 1 3 7 12 17 12 5 3 3 4 4 3 2 1 2 1 1 2 2 2 2 2 2 2 3 3 1 1 1 2 4 2 5 3 2 1 2 3 6 4 9 15 17 18 19 17 15 13 12 11 11 9 7 7 8 8 8 8
4 7 11 11 10 10 9 12 15 12 3 6 7 6 10 13 14 8 4 5 3 2 3 3 3 4 3 3 9 9 2 4 4 9 18 13 4 3 1 3 4 1 2 3 0 0 1 2 3 3 3 3 2 2 3 3 2 2 1 3 4 2 2 3 2 1 4 4 6 8 10 13 14 15 15 12 11 10 7 8 10 9 9 10 8 6 7 9
6 8 12 14 12 11 10 10 11 10 6 3 4 9 14 12 7 2 2 2 2 1 2 2 1 3 3 3 9 7 3 3 2 6 16 11 2 1 1 3 2 2 3 5 2 2 2 3 3 3 2 0 2 3 4 4 2 3 4 4 5 3 3 5 3 4 5 4 3 7 9 9 6 6 6 2 3 5 3 5 8 9 10 10 9 9 9 10
9 9 12 15 15 13 12 10 9 10 8 3 5 12 12 7 2 1 1 1 2 1 0 1 2 3 2 4 10 5 2 2 1 4 10 8 2 1 2 1 1 1 1 3 2 3 3 2 1 3 1 2 4 3 3 4 3 1 4 5 6 5 5 7 6 7 5 3 1 3 7 5 1 3 6 1 1 5 2 3 9 8 8 8 8 10 9 9
9 10 11 14 17 17 13 7 6 9 7 4 8 14 12 5 0 2 0 1 3 1 2 1 1 4 3 5 9 2 2 1 1 3 6 6 3 1 2 1 1 2 1 1 2 0 2 2 1 1 1 3 4 3 3 3 3 1 0 1 2 3 4 6 5 4 4 3 0 1 5 7 6 6 5 3 5 8 4 5 9 8 7 7 7 8 7 7
9 11 13 13 16 18 11 4 7 9 4 5 11 16 13 4 1 2 1 1 3 1 3 2 1 4 4 4 5 1 0 2 1 2 6 6 3 1 0 1 1 2 1 0 1 1 3 2 2 1 2 4 4 3 3 3 3 1 1 2 1 2 5 4 3 4 3 5 2 2 3 6 8 5 1 3 7 9 7 6 7 7 8 7 6 6 6 7
8 12 14 13 16 18 8 3 10 10 3 7 15 17 11 3 1 2 1 2 3 1 1 2 1 3 4 4 4 2 1 4 1 2 5 6 4 1 0 2 1 2 2 2 3 1 2 3 3 3 3 4 2 2 2 3 3 2 2 2 1 2 3 2 3 4 1 4 3 3 2 5 7 4 2 1 6 8 7 6 5 5 5 5 5 5 6 6
7 11 14 14 17 16 7 4 10 8 5 11 17 15 9 1 1 1 1 2 2 1 1 2 2 2 4 3 3 4 2 3 3 4 6 4 5 3 2 2 3 4 2 2 2 1 0 1 1 3 3 2 2 3 1 2 2 1 2 0 1 1 1 1 3 3 1 4 3 2 1 4 7 6 1 1 3 5 5 4 4 4 4 4 5 6 7 6
7 10 13 16 17 13 6 5 8 8 10 15 15 12 6 0 1 0 2 1 1 1 0 2 2 3 5 2 1 4 3 2 2 5 3 1 3 5 3 0 2 4 1 0 1 1 1 1 1 1 1 1 2 2 2 2 1 0 2 3 2 3 2 1 2 1 2 4 1 2 1 3 6 6 2 0 1 1 2 5 6 6 7 6 5 5 6 6
8 10 14 15 15 11 5 4 8 10 12 14 13 8 3 0 1 2 2 1 1 2 1 2 2 3 5 2 2 4 3 3 4 4 4 2 3 5 2 1 1 1 1 0 1 1 1 2 2 1 1 0 1 1 1 2 1 1 3 4 4 3 2 2 2 2 3 3 2 2 2 3 5 6 2 2 3 2 3 6 9 10 10 9 7 6 6 6
10 12 13 12 11 9 4 6 11 13 13 14 10 4 1 0 2 2 1 2 2 2 2 2 2 3 4 1 1 5 3 3 5 4 4 3 3 4 4 3 3 2 2 2 2 2 1 2 2 1 1 0 2 2 1 2 2 2 3 3 5 4 1 2 2 2 4 1 3 2 2 3 8 9 7 9 10 7 5 7 9 10 10 10 9 8 6 6
10 9 11 9 8 7 7 11 13 13 13 11 5 2 2 2 2 1 2 2 2 2 1 1 2 2 3 2 2 4 2 1 4 3 1 1 1 3 2 2 2 2 2 2 3 4 1 2 2 1 1 1 2 3 2 1 1 2 3 3 5 4 3 4 3 3 4 1 3 2 1 5 7 6 7 10 11 8 5 7 9 9 9 9 8 8 8 8
10 7 9 10 9 11 13 13 12 12 10 6 1 1 3 3 1 0 1 2 1 3 1 1 3 2 1 2 3 4 1 1 4 3 1 1 1 2 2 2 3 2 2 1 1 3 2 1 1 0 0 2 1 2 3 3 2 2 1 2 3 3 4 5 3 4 6 4 0 2 1 4 3 4 3 6 8 8 6 6 6 7 8 7 7 7 7 8
14 11 13 14 12 12 12 10 9 8 5 2 2 2 3 2 1 1 0 1 1 2 1 0 2 2 1 2 2 2 1 1 3 2 2 3 1 2 2 3 5 3 2 2 1 1 3 2 2 1 1 1 1 1 1 3 2 1 0 2 2 2 3 3 2 2 4 5 2 2 3 4 4 9 9 4 4 5 4 3 4 5 5 4 5 5 5 6
19 18 16 15 12 8 7 6 5 4 3 2 4 3 2 1 1 0 1 2 1 3 3 1 1 2 1 1 2 3 1 1 3 2 2 2 1 2 2 2 4 4 3 3 2 1 3 3 1 1 1 1 1 1 1 3 2 0 1 2 1 2 3 2 1 1 1 4 3 1 4 4 4 8 6 2 2 2 1 3 3 5 3 3 5 5 6 7
17 18 16 18 14 5 3 3 2 2 2 3 4 3 1 0 2 2 2 2 1 2 3 1 2 3 2 2 3 4 3 1 2 3 2 2 1 2 2 2 2 2 2 2 1 1 3 5 1 1 1 1 1 2 1 1 2 2 2 1 0 2 2 1 2 2 2 5 4 1 5 6 3 4 2 3 2 2 4 5 5 7 5 5 8 10 10 10
7 9 12 20 17 6 3 3 2 2 4 4 4 3 1 1 2 2 2 2 1 1 2 2 3 3 2 2 3 4 6 4 4 3 3 3 1 1 1 1 1 0 1 2 2 1 2 5 1 1 3 1 2 3 2 2 2 3 2 1 0 3 3 1 2 3 3 5 5 3 5 5 5 4 2 3 5 9 11 8 5 7 8 9 12 14 14 13
2 3 5 18 18 6 4 3 3 4 4 4 3 2 2 2 2 1 0 1 1 1 2 3 2 1 1 1 2 2 3 4 4 3 2 2 1 0 1 2 2 2 2 2 1 1 1 3 2 3 3 2 1 3 3 2 3 1 2 1 0 2 3 2 1 2 3 5 6 4 5 6 5 4 2 7 10 12 13 10 7 7 8 10 11 12 14 13
2 3 3 19 16 6 8 10 8 6 5 3 2 2 1 1 0 1 2 2 2 0 1 1 1 1 1 1 1 1 1 1 1 1 1 1 2 1 2 1 1 1 0 2 1 1 1 2 4 2 2 3 2 2 2 2 2 2 3 3 2 2 1 3 2 1 2 5 5 2 5 9 5 3 2 9 12 10 9 10 11 11 12 12 11 12 13 12
2 3 4 19 11 3 6 13 9 4 3 3 1 2 1 1 2 1 2 2 2 1 0 2 1 1 1 0 0 1 1 0 1 1 0 1 1 1 2 2 3 2 1 2 1 1 1 2 4 4 3 5 3 1 2 2 2 2 4 3 2 2 1 4 4 0 1 3 3 2 5 10 5 3 2 7 8 8 7 8 12 14 16 15 13 14 14 12
4 4 6 16 6 6 6 7 3 2 3 2 1 1 1 0 1 1 1 1 2 1 1 1 2 1 0 1 1 1 1 1 1 1 1 1 1 1 1 2 2 2 2 1 1 1 2 2 4 6 7 5 2 3 3 4 4 4 4 2 1 1 2 5 5 2 1 1 1 1 4 9 5 3 1 4 3 3 4 5 11 14 15 15 15 16 16 14
3 3 7 13 2 4 8 6 0 3 4 1 1 1 2 1 1 1 1 1 1 1 1 1 1 1 1 1 1 1 1 1 1 1 1 2 1 0 1 1 1 2 1 0 1 1 1 2 3 6 8 2 3 3 2 1 2 3 3 0 0 1 1 2 3 2 3 3 2 2 4 9 8 2 3 1 1 5 6 5 8 11 13 15 16 16 16 15
2 3 6 15 6 3 3 5 2 2 3 1 2 2 1 1 1 1 1 2 2 0 1 1 0 1 1 1 0 1 1 0 1 0 0 2 1 2 2 1 1 1 1 1 2 1 1 1 2 6 7 3 1 1 0 1 1 3 2 2 1 1 3 0 2 1 3 6 6 6 6 9 10 5 5 9 11 15 15 10 8 9 12 15 16 16 16 15
3 2 2 15 18 9 4 2 2 4 3 2 3 2 1 1 2 1 1 2 2 1 1 1 0 1 0 0 0 0 1 1 1 0 0 2 1 3 3 3 2 1 2 3 2 2 2 1 2 5 7 6 6 7 5 3 3 4 3 2 2 1 2 2 3 3 5 4 2 6 9 11 14 16 17 18 17 19 21 17 13 12 13 15 16 16 16 15
2 3 1 7 13 10 4 1 2 4 3 2 3 2 2 2 1 1 1 1 1 1 1 0 1 1 0 1 1 0 1 0 1 1 1 3 1 2 3 3 2 2 2 2 2 1 1 1 3 5 7 7 9 11 7 5 8 12 11 4 3 4 2 2 3 5 5 2 3 10 12 11 17 20 19 18 20 21 21 20 18 17 17 17 16 15 15 15
2 3 1 2 3 4 3 3 4 2 1 1 2 1 2 2 1 0 1 0 1 0 0 0 0 1 1 2 2 1 2 1 1 0 2 3 1 1 2 2 2 2 4 2 2 0 0 2 2 4 9 10 10 15 14 9 12 16 16 11 3 5 4 5 9 9 3 2 8 13 11 9 14 18 18 19 20 21 20 20 20 19 18 18 18 17 18 18
3 2 1 1 1 2 3 3 3 3 3 2 1 1 2 2 2 1 0 0 1 1 1 1 2 2 1 2 1 1 2 2 1 1 1 1 2 1 1 2 1 2 3 1 1 0 1 3 0 1 9 11 11 16 17 13 13 12 13 15 10 4 7 9 14 13 6 6 12 15 16 15 16 18 18 19 19 18 19 17 16 17 18 19 21 21 22 21
3 3 1 2 2 2 1 2 1 3 5 4 2 2 2 3 4 2 1 0 1 1 1 1 3 3 1 2 2 1 1 2 3 3 1 1 2 2 1 1 1 1 2 0 0 0 2 2 0 1 9 13 10 11 11 9 9 10 12 14 11 9 10 12 16 14 10 13 18 19 21 20 17 16 16 16 16 15 14 13 14 17 20 21 21 20 21 21
2 3 1 2 4 2 1 2 1 2 4 3 2 2 2 2 3 1 1 1 2 2 2 3 4 3 1 1 2 3 2 2 4 5 1 0 2 1 0 1 1 0 1 0 1 1 1 1 1 1 7 11 5 4 5 6 7 11 15 12 8 10 11 10 11 10 8 12 16 16 16 16 12 11 13 14 15 15 15 14 16 18 19 19 18 17 19 21
6 3 4 5 4 3 2 1 1 2 3 3 2 2 1 2 2 1 1 1 1 2 2 4 4 2 1 1 4 4 2 3 6 4 1 1 2 1 0 1 1 1 1 1 0 1 1 1 1 1 6 8 2 2 9 11 8 9 11 11 7 7 7 6 6 5 6 7 9 9 9 8 8 10 14 17 18 18 17 16 15 16 18 18 16 16 17 19
6 3 3 5 3 2 2 1 1 2 2 2 2 1 1 2 1 1 1 1 1 2 2 2 3 2 1 2 3 2 2 3 4 3 2 1 2 2 1 1 1 2 1 2 0 1 0 1 1 2 4 7 5 6 12 14 9 2 2 5 7 6 7 7 5 6 8 6 5 6 6 9 12 13 15 18 20 19 17 15 13 15 16 16 14 15 17 17
Wind_Direction
175 161 149 143 137 137 139 142 146 145 142 136 132 107 13 351 340 326 326 328 318 314 303 290 276 274 279 239 201 149 62 60 60 53 56 12 345 346 343 340 347 351 249 181 178 210 19 46 38 46 73 55 23 358 65 33 2 269 211 111 134 160 170 172 172 166 108 153 162 168 184 199 190 179 182 189 223 236 240 236 234 233 238 238 233 168 168 185
148 146 142 141 138 140 143 144 148 146 147 147 138 5 345 338 331 321 318 326 327 317 297 289 289 281 268 221 195 170 80 51 53 46 30 354 349 355 350 346 349 351 235 202 198 232 234 70 21 31 60 57 6 10 118 0 356 14 93 85 121 120 104 144 159 150 142 156 160 166 186 204 196 177 167 213 220 216 239 235 225 235 233 223 216 207 199 196
143 143 141 141 142 142 144 147 150 152 158 168 318 336 342 335 325 314 313 342 340 311 305 304 315 304 227 183 189 182 175 24 46 24 354 350 353 359 355 352 3 22 278 215 202 207 144 105 79 48 63 60 23 24 38 8 347 358 14 95 105 85 83 93 160 148 284 155 161 164 172 211 202 174 169 219 230 217 232 229 218 227 227 218 206 200 202 203
143 142 143 143 144 144 148 152 157 166 183 263 332 339 343 339 331 328 342 62 70 41 26 15 28 54 144 166 183 184 224 359 46 343 338 349 351 357 359 0 13 54 83 134 151 130 110 89 68 52 69 73 38 35 31 8 343 43 358 64 98 140 115 122 193 121 304 186 168 156 156 211 196 170 202 219 232 228 230 228 225 224 224 224 205 187 195 204
145 142 145 145 147 152 156 163 173 191 261 322 340 349 1 24 32 15 54 113 96 75 63 60 67 77 115 157 179 181 246 26 15 334 337 344 347 357 5 21 46 110 92 101 120 115 100 67 61 53 56 56 22 56 35 3 353 66 34 33 80 203 123 116 218 97 165 164 159 158 170 197 151 195 225 220 228 233 231 226 227 227 228 233 206 185 191 204
145 144 149 149 157 161 167 180 193 247 322 336 354 36 72 68 46 23 96 140 115 90 74 66 70 77 91 105 141 167 245 89 347 333 334 337 346 355 6 23 100 171 92 89 122 127 92 37 57 50 63 57 33 59 34 354 285 100 83 31 40 330 99 112 131 130 175 170 165 169 176 152 183 222 225 223 236 242 255 210 227 234 233 240 208 191 195 208
149 152 157 159 167 169 183 200 243 296 323 347 76 103 96 69 46 36 117 169 154 128 99 66 61 71 85 85 86 80 69 48 339 331 330 334 343 343 353 27 72 212 273 281 46 95 108 74 89 81 89 89 58 69 35 33 56 84 104 65 23 32 71 82 95 140 189 183 164 143 201 212 218 231 224 237 243 246 256 248 224 251 245 232 225 214 212 220
158 162 162 166 173 181 207 247 284 294 320 137 132 127 108 82 76 71 80 149 205 209 229 318 350 2 62 77 76 68 56 353 333 333 333 330 337 345 343 0 24 142 86 81 81 120 113 80 114 140 80 79 78 81 13 53 58 57 95 103 67 64 68 88 114 135 162 160 97 37 233 228 228 268 291 253 248 246 248 242 225 228 241 234 230 228 226 230
159 159 160 167 183 227 263 277 281 272 178 160 154 145 121 103 98 82 70 52 334 253 250 285 301 292 277 192 116 65 28 341 338 344 351 346 344 347 352 126 96 126 91 73 74 109 128 107 148 176 109 100 101 67 325 7 54 54 87 103 99 88 88 116 120 115 141 139 147 235 242 239 210 310 275 254 252 250 245 242 235 225 235 241 234 234 231 234
147 152 161 190 252 274 281 276 262 190 167 166 165 155 124 120 113 80 58 49 35 218 216 217 206 225 175 192 103 69 360 344 2 15 25 34 43 22 37 109 116 113 83 61 48 24 19 151 132 121 114 100 62 36 344 24 92 99 99 92 81 89 91 91 132 114 156 171 184 245 261 255 138 264 263 253 248 241 241 240 236 228 237 242 236 236 233 235
147 166 205 249 269 279 287 252 166 158 168 172 168 152 121 120 91 27 51 73 71 91 106 103 103 97 90 80 74 71 2 1 25 35 45 52 58 53 47 72 123 112 93 69 56 66 97 122 127 125 117 97 81 65 46 80 115 106 105 91 65 63 95 106 170 126 236 187 163 264 275 262 172 208 250 251 207 135 243 251 240 231 237 242 240 239 233 235
161 167 154 121 89 37 353 118 144 160 170 175 160 140 119 38 352 30 79 94 85 90 98 94 91 84 75 67 65 67 26 30 36 45 54 58 60 59 56 72 100 110 107 92 71 83 102 126 117 80 61 143 119 80 95 134 117 93 73 85 77 23 153 175 180 82 260 206 99 284 279 251 200 217 243 244 207 158 260 263 254 241 242 243 241 240 237 238
140 126 107 82 55 19 48 120 140 155 165 169 158 141 354 342 356 85 92 88 80 75 92 79 68 73 70 64 51 47 43 43 50 57 61 64 66 68 69 75 83 91 99 98 90 89 102 117 99 84 63 107 108 109 126 132 306 103 32 40 130 240 199 173 155 84 234 198 107 233 287 259 200 220 237 229 131 253 264 260 255 246 246 245 241 241 242 242
129 110 84 57 38 46 121 139 138 148 160 161 165 313 9 12 55 108 95 80 76 77 99 94 75 74 76 80 47 42 41 44 52 53 55 63 68 70 70 73 77 80 86 89 88 89 95 95 92 93 51 52 103 147 118 88 349 98 13 301 179 261 172 144 149 188 213 157 151 232 275 278 250 232 227 203 185 247 260 259 256 251 248 249 246 245 247 246
128 95 55 45 69 133 131 139 138 147 161 167 200 43 80 78 90 104 89 83 90 96 102 93 75 79 80 92 91 35 34 40 36 31 37 48 57 65 66 69 74 75 79 83 85 83 83 81 77 81 63 48 136 141 106 84 59 52 248 208 174 261 223 142 159 207 235 152 178 232 266 275 283 289 229 166 196 222 251 261 264 264 261 260 256 252 252 253
132 51 24 50 118 118 119 138 144 151 158 155 122 114 106 92 90 94 89 90 98 105 99 76 80 102 97 88 82 29 27 22 13 15 28 31 34 40 42 66 73 72 73 70 74 70 59 64 63 48 81 146 137 103 115 133 135 116 273 256 193 242 280 207 154 189 255 220 200 226 265 283 281 301 106 142 166 200 257 272 272 270 267 265 261 258 256 258
117 10 26 94 115 105 126 143 145 142 136 126 114 127 127 104 106 103 93 99 98 102 101 72 79 100 80 61 86 25 1 351 356 3 16 25 32 32 26 54 52 51 69 53 52 47 31 47 89 333 67 93 65 338 185 176 205 171 220 257 209 234 268 279 161 139 218 226 229 220 240 266 267 264 251 215 197 240 273 275 274 272 268 264 262 260 257 258
344 12 80 110 104 100 119 136 139 132 123 116 107 107 101 90 106 110 88 137 134 89 85 39 29 106 74 47 5 341 316 319 357 5 4 11 23 33 39 45 1 333 59 41 35 23 5 31 154 134 86 56 46 296 259 286 268 167 227 250 272 237 238 267 271 141 189 220 240 232 237 260 268 269 266 253 228 247 266 269 272 271 267 266 261 259 257 256
350 47 120 123 109 102 121 137 136 130 128 120 108 102 95 84 85 74 51 58 99 351 72 359 347 111 82 43 323 319 319 311 353 13 8 357 353 22 34 33 22 23 26 331 25 13 355 67 114 121 89 33 25 336 322 359 16 62 266 277 296 276 255 261 269 88 236 248 244 238 243 261 271 273 274 266 226 233 259 261 263 264 263 263 255 254 254 253
4 84 131 137 134 130 140 143 139 139 135 117 94 91 104 85 70 54 36 43 54 12 51 350 6 82 78 43 312 312 353 23 42 22 10 2 344 355 17 10 33 59 41 330 16 5 313 93 89 50 16 352 330 319 331 339 346 92 133 266 270 270 278 268 149 89 198 274 259 241 252 263 268 271 274 273 236 234 256 252 252 253 251 252 248 252 252 250
30 122 135 138 139 141 148 151 148 148 140 72 16 37 152 154 75 110 32 47 46 346 22 24 47 69 75 29 344 329 258 70 56 25 13 11 350 333 354 350 40 63 40 302 293 293 271 71 71 355 312 330 337 216 245 267 281 7 209 274 270 251 273 277 112 107 138 264 265 248 269 266 264 267 269 270 253 246 251 243 246 249 245 249 247 252 254 255
188 147 147 141 133 134 147 158 158 157 146 11 12 55 109 124 120 127 131 95 58 349 33 47 54 60 63 59 10 351 281 44 35 18 9 6 4 9 356 16 61 69 16 291 231 195 69 63 71 91 122 97 89 162 238 257 242 261 198 272 284 279 283 280 99 104 165 234 277 311 297 276 269 267 264 263 256 249 248 240 246 253 249 249 243 248 256 263
205 167 162 156 144 141 151 165 170 174 204 354 24 87 117 121 124 120 101 109 89 5 19 30 51 32 12 41 8 355 41 46 8 7 1 355 25 41 12 55 62 76 0 359 333 147 75 69 79 122 134 110 105 173 230 244 220 233 248 280 288 6 316 272 75 60 205 231 292 309 300 281 271 267 259 257 257 259 263 251 247 247 248 250 255 263 259 261
216 185 174 175 167 159 163 172 183 199 234 310 70 124 133 130 132 95 67 110 92 61 28 38 117 35 25 19 358 355 80 59 328 349 354 358 74 304 26 73 46 77 30 3 33 81 68 56 84 134 139 3 232 202 211 238 246 225 225 254 278 305 279 263 328 323 250 213 277 295 288 273 262 269 262 224 227 255 258 256 252 237 237 250 265 269 254 250
223 202 186 185 182 179 176 175 195 214 227 222 149 153 147 139 147 21 82 121 64 92 15 139 151 41 27 352 359 2 141 66 23 327 345 8 41 259 109 91 325 89 39 339 38 80 70 54 124 142 152 240 233 231 220 243 278 245 213 237 276 300 287 277 312 322 281 216 167 313 302 283 229 258 267 263 297 276 245 249 260 242 225 232 248 256 247 241
222 208 196 188 188 188 181 180 208 210 213 213 183 175 166 159 325 3 7 119 63 15 343 48 122 13 4 352 0 350 198 61 39 342 355 15 6 243 131 107 357 73 174 349 44 129 86 79 217 213 234 233 245 252 210 227 280 298 237 269 284 300 286 286 302 298 288 298 120 309 295 289 294 284 279 339 321 293 276 246 253 250 237 226 232 249 248 244
215 204 197 193 191 186 182 204 199 184 195 215 192 180 173 173 1 2 290 78 52 3 344 349 328 0 359 341 339 300 227 341 328 35 14 9 357 264 73 32 67 67 97 204 317 145 124 132 192 228 250 243 259 262 181 201 277 312 30 358 345 276 273 276 281 256 285 322 301 175 233 273 289 293 5 0 310 293 285 262 248 242 245 243 241 248 252 254
202 192 188 189 187 183 187 211 177 174 204 192 179 176 173 173 329 310 268 82 40 28 11 339 314 2 355 336 351 47 26 319 337 43 5 11 17 311 144 60 110 94 101 252 297 69 149 198 193 192 225 246 285 4 134 190 277 352 44 350 336 291 279 237 254 258 284 313 280 151 157 265 276 267 142 35 304 297 295 288 279 265 258 267 274 271 266 265
177 180 180 180 181 182 191 187 171 177 187 168 164 168 170 154 335 302 97 111 11 25 144 315 316 357 344 326 7 38 7 346 28 349 336 19 33 33 85 78 109 111 84 285 292 343 19 280 211 210 236 271 27 34 37 216 291 25 112 32 120 150 262 200 251 272 235 274 271 127 125 280 286 285 252 104 297 289 289 293 300 302 297 283 285 290 287 283
152 162 167 171 174 177 174 165 171 167 155 156 158 162 165 128 288 142 63 67 353 352 243 344 333 332 342 332 17 21 15 14 345 321 334 50 22 41 83 188 140 126 97 320 241 263 31 81 202 243 305 6 66 63 13 358 12 119 215 258 233 190 187 187 229 271 248 250 220 84 357 294 297 295 272 211 328 337 305 303 301 302 305 294 281 287 291 292
132 147 159 165 168 174 172 148 157 155 149 152 151 146 148 76 43 96 74 42 357 329 339 21 352 344 6 18 14 3 7 2 340 346 21 15 355 28 61 303 309 167 175 164 224 241 175 184 175 87 5 26 122 142 91 75 106 264 271 278 276 240 191 199 191 183 251 264 103 83 306 258 256 270 265 289 297 242 233 281 292 298 305 307 303 296 289 286
123 137 150 159 170 179 177 148 147 147 146 148 143 125 133 215 23 60 29 318 349 357 16 19 342 9 9 352 22 352 336 0 10 22 24 5 24 28 15 7 354 320 7 30 320 299 206 166 104 89 114 42 287 259 161 145 167 258 273 283 294 298 287 262 250 217 254 271 110 117 320 260 245 258 272 283 282 263 229 242 263 279 290 295 301 304 299 289
117 138 145 147 165 157 132 139 142 140 143 144 135 68 78 89 54 78 271 311 7 5 6 322 307 337 323 306 28 355 308 358 7 24 29 328 66 54 48 36 346 323 355 0 331 333 357 115 101 165 148 36 299 285 293 230 214 266 286 310 307 321 323 289 284 278 275 300 121 132 330 274 263 266 251 258 276 281 254 240 245 257 266 275 289 298 298 291
103 132 133 119 126 122 119 131 137 140 144 139 115 33 63 69 67 112 289 310 3 349 337 314 313 306 337 16 12 339 277 70 4 344 329 326 71 53 77 63 11 347 311 315 353 354 331 327 41 161 18 5 291 303 332 313 293 288 333 322 292 293 291 285 304 298 297 318 186 152 252 252 286 327 262 243 280 287 271 258 257 256 253 263 281 285 285 284
98 104 102 94 96 103 111 124 133 142 144 98 62 59 66 87 216 207 333 303 307 327 308 278 320 298 58 39 26 2 6 48 11 343 349 9 33 25 29 25 13 5 322 327 17 9 286 283 39 33 323 332 312 18 354 289 280 141 115 277 275 302 296 287 321 321 313 311 266 190 241 237 275 297 287 285 284 266 264 263 260 268 259 260 275 275 281 286
86 82 76 64 61 77 96 113 125 142 155 81 67 57 65 119 283 231 56 346 327 325 308 268 353 348 1 350 43 55 28 306 341 342 24 38 42 30 23 18 11 5 4 356 351 18 303 288 61 71 217 71 347 321 310 299 309 129 264 289 332 334 305 283 289 92 179 275 272 192 259 276 303 288 284 329 298 203 241 276 279 302 294 269 284 294 302 302
75 73 60 36 30 40 68 96 126 124 102 68 77 77 58 98 10 7 7 350 346 316 313 306 17 4 353 328 3 357 325 307 339 336 19 46 47 35 18 37 37 8 11 336 287 64 300 286 357 78 253 119 156 246 239 284 293 277 286 350 30 258 269 268 277 275 239 263 277 265 275 289 312 300 330 33 2 333 315 312 330 332 324 314 314 315 312 307
69 81 61 23 15 26 60 69 89 88 82 65 83 104 36 28 25 5 4 354 323 298 338 23 28 9 352 350 0 338 328 343 353 349 8 16 29 53 6 42 107 158 213 241 242 96 266 278 319 160 243 204 156 232 245 165 205 273 287 61 291 260 246 203 265 288 287 282 279 277 291 275 230 239 297 341 342 330 321 328 345 333 325 321 318 318 314 309
26 115 60 5 4 27 43 48 59 51 72 67 73 101 40 35 34 343 306 300 266 273 22 30 17 25 58 0 333 322 354 1 347 355 22 8 358 164 187 211 200 174 192 242 260 127 213 280 297 186 208 288 193 214 237 162 145 213 231 179 98 271 265 263 281 290 276 277 283 302 316 289 227 187 261 314 327 330 330 337 340 327 320 316 315 315 311 309
5 134 32 355 5 60 51 54 63 41 59 72 57 84 39 14 234 240 222 227 239 227 68 152 168 44 114 184 241 261 40 60 288 353 41 290 278 195 148 226 269 115 201 277 286 274 213 241 279 230 183 277 274 193 228 226 176 196 216 214 197 196 276 288 253 209 267 271 274 287 291 286 275 142 287 313 328 341 347 340 329 326 324 321 316 310 308 308
20 114 0 348 0 120 51 53 56 32 70 80 70 109 100 210 195 205 222 252 274 293 292 169 143 80 192 186 178 222 285 265 204 235 227 202 272 357 65 22 357 24 305 269 246 301 295 240 279 304 291 285 300 40 358 314 303 278 260 254 243 210 252 274 260 171 350 274 270 292 283 284 291 110 306 318 340 352 356 337 322 323 323 321 317 308 304 301
50 95 339 344 24 108 59 58 43 14 97 78 54 104 37 216 172 28 39 307 304 316 10 62 36 37 164 340 340 222 269 288 253 286 253 226 285 316 61 61 2 326 293 315 55 23 328 273 281 283 274 288 14 57 17 340 326 300 282 303 345 307 265 272 282 337 357 272 15 26 277 278 288 104 356 327 1 340 327 317 312 316 315 312 309 303 300 295
60 113 356 353 50 123 61 76 353 21 74 68 44 69 19 29 18 8 47 5 335 323 18 61 12 28 92 305 265 237 259 226 237 326 255 240 251 347 86 82 309 271 248 274 80 67 297 251 283 282 270 266 100 116 114 37 329 281 267 154 165 314 6 297 295 342 310 269 243 248 256 275 290 79 118 272 297 296 299 293 292 302 307 307 305 301 300 300
84 137 22 15 21 205 70 84 139 71 88 147 89 72 40 51 29 16 7 8 24 10 44 72 2 22 69 8 294 283 344 12 254 342 237 242 194 86 61 10 324 348 24 358 18 20 291 268 325 309 309 326 10 1 50 154 252 267 252 104 68 24 61 26 221 147 277 263 247 253 261 269 283 309 315 310 314 313 315 315 298 298 306 308 307 304 303 304
75 109 359 21 37 62 83 85 130 120 132 142 88 52 26 100 56 1 321 21 38 302 22 83 304 345 73 209 115 7 347 358 314 15 2 263 208 98 58 7 349 23 34 8 351 304 295 324 310 304 319 326 318 321 328 326 313 280 251 110 109 144 138 251 271 250 252 259 232 248 259 271 288 301 306 311 318 318 320 327 324 316 311 306 304 305 307 307
77 56 328 2 32 54 74 17 72 108 141 130 89 26 7 75 85 231 248 30 54 321 1 78 263 326 19 286 1 347 301 337 18 1 283 261 245 87 54 19 21 29 6 348 309 295 335 261 248 257 267 276 288 293 299 322 310 290 287 287 159 162 178 224 264 254 248 282 272 254 256 273 289 297 304 313 319 320 323 329 330 327 321 312 304 300 302 304
95 77 9 316 14 37 61 48 32 57 134 116 89 29 7 4 1 158 197 161 98 229 285 138 3 1 336 334 352 309 277 290 58 313 256 255 290 56 69 57 48 343 329 312 242 253 353 261 256 250 251 253 270 281 286 292 284 280 288 291 239 162 165 202 230 240 245 321 277 267 268 275 285 296 305 310 314 320 325 329 328 322 317 312 309 309 311 312
67 122 264 309 46 24 32 33 23 42 54 61 109 79 8 11 30 28 291 187 140 235 246 93 46 28 332 290 313 306 303 310 284 264 269 293 323 0 64 75 59 325 317 280 196 287 268 271 320 254 269 265 257 267 276 278 271 268 275 279 272 215 178 207 238 243 230 239 256 270 284 287 289 296 301 305 311 317 319 317 313 308 308 311 316 319 321 322
67 107 314 347 64 104 23 354 351 49 48 49 78 63 23 36 46 27 290 288 1 339 1 0 2 7 283 251 283 291 303 319 300 287 282 1 316 322 4 51 105 301 293 216 41 234 199 251 194 207 285 287 267 259 268 267 270 274 266 264 269 258 227 225 246 249 237 243 255 269 281 284 285 287 291 300 307 308 307 308 308 312 315 316 318 322 324 326
107 125 136 57 75 88 32 353 349 42 44 39 49 49 24 25 32 15 325 1 6 9 5 345 342 337 272 236 249 257 261 258 266 261 202 102 309 287 249 321 99 124 291 85 38 272 222 278 99 149 292 299 286 256 262 242 242 270 280 280 272 267 258 244 251 253 238 248 260 269 276 277 278 289 299 304 307 309 315 322 321 319 317 317 320 323 323 325
84 110 134 109 74 7 357 22 20 45 44 22 19 38 13 14 26 348 301 309 332 334 331 328 322 300 243 235 244 258 279 251 255 263 202 286 307 323 256 323 347 319 314 122 154 308 267 272 48 36 304 294 279 311 304 290 261 253 278 293 285 269 266 249 233 212 203 242 270 272 274 286 306 322 318 313 313 317 322 326 322 315 313 316 320 321 319 321
87 94 102 97 78 4 354 8 11 54 67 13 7 13 351 15 36 262 273 192 258 300 318 306 296 271 266 272 265 295 339 294 293 339 21 327 313 327 310 290 275 275 248 150 142 348 304 257 312 10 302 284 297 325 312 305 303 271 248 296 302 294 283 270 252 207 197 218 270 280 285 308 320 322 316 314 317 318 321 325 317 309 308 309 314 317 318 318